Beaufort, NC

2:29 AM EDT on September 01, 2016 (GMT -0400)
Smith

Weather History for KMRH - October, 2014

Change the Weather History Date:

Monday, October 6, 2014

  Actual Average Record
Temperature  
Mean Temperature 58 °F -  
Max Temperature 71 °F 78 °F 93 °F (1986)
Min Temperature 46 °F 59 °F 45 °F (1965)
Degree Days  
Heating Degree Days 6    
Growing Degree Days 8 (Base 50)    
Moisture  
Dew Point 49 °F    
Average Humidity 63    
Maximum Humidity 93    
Minimum Humidity 40    
Precipitation  
Precipitation 0.00 in - - ()
Sea Level Pressure  
Sea Level Pressure 30.11 in    
Wind  
Wind Speed 3 mph (SSW)    
Max Wind Speed 12 mph    
Max Gust Speed -    
Visibility 10 miles    
Events      
Averages and records for this station are not official NWS values.
T = Trace of Precipitation, MM = Missing Value Source: NWS Daily Summary

Daily Weather History Graph

Daily Weather History Graph

Search for Another Location

Airport or City:

Trip Planner

Search our weather history database for the weather conditions in past years. The results will help you decide how hot, cold, wet, or windy it might be!

Date:

Astronomy

Oct. 06, 2014 Rise Set
Actual Time 7:05 AM EDT 6:43 PM EDT
Civil Twilight 6:39 AM EDT 7:08 PM EDT
Nautical Twilight 6:10 AM EDT 7:38 PM EDT
Astronomical Twilight 5:41 AM EDT 8:07 PM EDT
Moon 5:35 PM EDT (10/6) 4:54 AM EDT (10/6)
Length of Visible Light 12h 29m
Length of Day
11h 38m
Waxing Gibbous, 95% of the Moon is Illuminated
Oct 6
Waxing Gibbous
Oct 8
Full
Oct 15
Last Quarter
Oct 23
New
Oct 30
First Quarter

Hourly Weather History & Observations

Time (EDT) Temp. Dew Point Humidity Pressure Visibility Wind Dir Wind Speed Gust Speed Precip Events Conditions
12:58 AM 51.1 °F 48.0 °F 89% 30.07 in 10.0 mi Calm Calm - N/A   Clear
1:58 AM 55.9 °F 46.9 °F 72% 30.08 in 10.0 mi Calm Calm - N/A   Clear
2:58 AM 55.9 °F 46.9 °F 72% 30.07 in 10.0 mi West 3.5 mph - N/A   Clear
3:58 AM 51.1 °F 46.9 °F 86% 30.07 in 10.0 mi Calm Calm - N/A   Clear
4:58 AM 48.9 °F 46.0 °F 90% 30.08 in 10.0 mi Calm Calm - N/A   Clear
5:58 AM 46.9 °F 45.0 °F 93% 30.10 in 10.0 mi Calm Calm - N/A   Clear
6:58 AM 48.0 °F 46.0 °F 93% 30.12 in 10.0 mi Calm Calm - N/A   Clear
7:58 AM 52.0 °F 48.9 °F 89% 30.13 in 10.0 mi Calm Calm - N/A   Clear
8:58 AM 63.0 °F 48.9 °F 60% 30.14 in 10.0 mi Calm Calm - N/A   Clear
9:58 AM 68.0 °F 43.0 °F 40% 30.15 in 10.0 mi Calm Calm - N/A   Clear
10:58 AM 68.0 °F 44.1 °F 42% 30.15 in 10.0 mi SSW 4.6 mph - N/A   Clear
11:58 AM 69.1 °F 45.0 °F 42% 30.15 in 10.0 mi South 6.9 mph - N/A   Clear
12:58 PM 69.1 °F 46.9 °F 45% 30.13 in 10.0 mi South 5.8 mph - N/A   Clear
1:58 PM 70.0 °F 48.9 °F 47% 30.11 in 10.0 mi South 11.5 mph - N/A   Clear
2:58 PM 71.1 °F 51.1 °F 49% 30.10 in 10.0 mi SSW 8.1 mph - N/A   Clear
3:58 PM 71.1 °F 48.9 °F 45% 30.09 in 10.0 mi South 9.2 mph - N/A   Clear
4:58 PM 71.1 °F 48.9 °F 45% 30.09 in 10.0 mi SSW 9.2 mph - N/A   Clear
5:58 PM 69.1 °F 50.0 °F 51% 30.09 in 10.0 mi South 10.4 mph - N/A   Clear
6:58 PM 68.0 °F 51.1 °F 55% 30.11 in 10.0 mi South 8.1 mph - N/A   Clear
7:58 PM 66.9 °F 53.1 °F 61% 30.11 in 10.0 mi SSW 6.9 mph - N/A   Clear
8:58 PM 66.9 °F 53.1 °F 61% 30.12 in 10.0 mi South 8.1 mph - N/A   Clear
9:58 PM 68.0 °F 54.0 °F 61% 30.13 in 10.0 mi South 10.4 mph - N/A   Clear
10:58 PM 68.0 °F 55.0 °F 63% 30.13 in 10.0 mi South 10.4 mph - N/A   Clear
11:58 PM 69.1 °F 55.0 °F 61% 30.13 in 10.0 mi SSW 11.5 mph - N/A   Clear